Overview Statistics Trail Chart Weather Telemetry Raw packets
 

This is the latest recevied weather packets stored in our database for station/object WI0K. If no packets are shown the sender has not sent any weather packets the latest 10 day(s).

<< 94 95 96 97 98 99 100 >>
Time Temp. Humidity Pressure Rain* Wind** Luminosity Snow
1787969166 26.67° C 36% 1020.8 hPa 0 mm - 0 W/m² -
1787968865 27.22° C 33% 1020.4 hPa 0 mm - 0 W/m² -
1787968565 27.22° C 32% 1020.2 hPa 0 mm - 0 W/m² -
1787968264 27.78° C 32% 1020.2 hPa 0 mm - 0 W/m² -
1787967963 27.78° C 31% 1020.2 hPa 0 mm - 1 W/m² -
1787967663 27.78° C 31% 1020.1 hPa 0 mm - 2 W/m² -
1787967362 28.33° C 31% 1020.1 hPa 0 mm - 4 W/m² -
1787967061 28.33° C 30% 1019.9 hPa 0 mm - 6 W/m² -
1787966761 28.33° C 29% 1019.8 hPa 0 mm - 7 W/m² -
1787966460 28.33° C 29% 1019.9 hPa 0 mm - 10 W/m² -
1787966159 28.33° C 31% 1020.2 hPa 0 mm - 13 W/m² -
1787965858 28.33° C 30% 1020.2 hPa 0 mm - 15 W/m² -
1787965557 27.78° C 30% 1020.3 hPa 0 mm - 15 W/m² -
1787965257 27.78° C 30% 1020.4 hPa 0 mm - 20 W/m² -
1787964956 27.78° C 31% 1020.5 hPa 0 mm - 25 W/m² -
1787964655 27.78° C 32% 1020.8 hPa 0 mm - 28 W/m² -
1787964355 27.78° C 32% 1020.8 hPa 0 mm - 24 W/m² -
1787964054 27.78° C 33% 1020.8 hPa 0 mm - 19 W/m² -
1787963753 27.78° C 34% 1020.8 hPa 0 mm - 20 W/m² -
1787963447 27.78° C 32% 1020.7 hPa 0 mm - 23 W/m² -
1787963146 27.78° C 32% 1020.7 hPa 0 mm - 27 W/m² -
1787962846 27.78° C 32% 1020.7 hPa 0 mm - 32 W/m² -
1787962545 28.33° C 32% 1020.8 hPa 0 mm - 34 W/m² -
1787962244 28.33° C 31% 1020.8 hPa 0 mm - 39 W/m² -
1787961944 28.33° C 30% 1020.8 hPa 0 mm - 46 W/m² -

* Rain latest hour (hover to see other rain measurements)
** Current wind speed in m/s (hover to see current wind gust speed)